Date String (YYYY-MM-DD hh:mm:ss) UTC,Instrument flags,Ambient pressure (hPa),Sample flow (lpm),Bypass flow (lpm),Sample temperature (°C),Ambient temperature (°C),ASC tube jacket temperature (°C),LED temperature (°C),Box temperature (°C),Sample RH (%),Span deviation,Mass concentration (μg/m³),Mass concentration (μg/m³),Mass concentration (μg/m³)
DateTimeUTC,F1_M11,P_M11,Q1_M11,Q2_M11,T1_M11,T2_M11,T3_M11,T4_M11,T5_M11,U1_M11,ZSPAN_M11,X0_M11,X2_M11,X1_M11
2023-05-22 20:00:00,,0830.0,5.00,0.00,29.5,27.0,00.0,37.8,31.1,22.7,0003.6,0039.57,0027.04,0025.55
2023-05-22 20:01:00,,0830.0,5.00,0.00,29.5,27.2,00.0,37.8,31.1,23.0,0003.6,0039.75,0027.11,0025.61
2023-05-22 20:02:00,,0830.0,5.00,0.00,29.5,27.5,00.0,37.8,31.2,22.6,0003.6,0039.64,0027.14,0025.68
2023-05-22 20:03:00,,0830.0,5.00,0.00,29.5,27.7,00.0,37.8,31.2,22.2,0003.6,0039.53,0027.26,0025.78
2023-05-22 20:04:00,,0830.0,5.00,0.00,29.5,27.9,00.0,37.8,31.2,22.2,0003.6,0040.10,0027.31,0025.83
2023-05-22 20:05:00,,0830.0,5.00,0.00,29.6,28.0,00.0,37.9,31.3,21.9,0003.6,0039.59,0027.33,0025.83
2023-05-22 20:06:00,,0830.0,5.00,0.00,29.6,28.1,00.0,37.9,31.3,22.0,0003.6,0039.32,0027.37,0025.89
2023-05-22 20:07:00,,0830.0,5.00,0.00,29.6,28.2,00.0,37.9,31.3,20.9,0003.6,0039.20,0027.46,0026.03
2023-05-22 20:08:00,,0830.0,5.00,0.00,29.7,28.3,00.0,37.9,31.4,20.9,0003.7,0039.38,0027.55,0026.12
2023-05-22 20:09:00,,0830.0,4.99,0.00,29.7,27.1,00.0,37.9,31.3,20.8,0003.8,0039.27,0027.74,0026.28
2023-05-22 20:10:00,,0830.0,5.01,0.00,29.6,26.0,00.0,37.8,31.1,21.7,0003.7,0039.59,0027.98,0026.49
2023-05-22 20:11:00,,0830.0,5.00,0.00,29.6,26.0,00.0,37.7,31.0,21.2,0003.7,0039.83,0028.26,0026.71
2023-05-22 20:12:00,,0830.0,5.01,0.00,29.5,26.2,00.0,37.8,30.9,21.5,0003.6,0039.97,0028.40,0026.92
2023-05-22 20:13:00,,0830.0,4.99,0.00,29.4,26.5,00.0,37.8,31.0,22.0,0003.6,0040.50,0028.64,0027.11
2023-05-22 20:14:00,,0830.0,4.99,0.00,29.4,26.8,00.0,37.8,31.0,22.6,0003.6,0040.65,0028.75,0027.23
2023-05-22 20:15:00,,0830.0,5.01,0.00,29.4,27.1,00.0,37.8,31.1,21.9,0003.6,0039.80,0028.88,0027.37
2023-05-22 20:16:00,,0830.0,5.00,0.00,29.4,27.3,00.0,37.8,31.1,22.5,0003.6,0040.18,0029.05,0027.54
2023-05-22 20:17:00,,0830.0,5.00,0.00,29.5,27.6,00.0,37.8,31.2,23.0,0003.6,0040.92,0029.15,0027.65
2023-05-22 20:18:00,,0830.0,5.00,0.00,29.5,27.7,00.0,37.8,31.2,22.2,0003.5,0041.00,0029.13,0027.62
2023-05-22 20:19:00,,0830.0,5.00,0.00,29.5,27.9,00.0,37.8,31.2,21.5,0003.4,0040.93,0029.06,0027.60
2023-05-22 20:20:00,,0830.0,5.00,0.00,29.5,28.0,00.0,37.8,31.3,21.7,0003.3,0040.92,0028.89,0027.48
2023-05-22 20:21:00,,0830.0,4.98,0.00,29.6,28.1,00.0,37.8,31.3,22.1,0003.4,0042.02,0028.78,0027.37
2023-05-22 20:22:00,,0830.0,5.01,0.00,29.6,28.2,00.0,37.9,31.3,21.6,0003.4,0042.02,0028.70,0027.30
2023-05-22 20:23:00,,0830.0,5.01,0.00,29.6,28.3,00.0,37.9,31.4,21.7,0003.3,0042.13,0028.73,0027.32
2023-05-22 20:24:00,,0830.0,5.00,0.00,29.7,28.4,00.0,37.9,31.4,21.0,0003.4,0042.28,0028.74,0027.38
2023-05-22 20:25:00,,0830.0,4.98,0.00,29.7,27.2,00.0,37.8,31.3,20.6,0003.5,0042.55,0028.83,0027.47
2023-05-22 20:26:00,,0829.9,5.00,0.00,29.6,25.4,00.0,37.7,31.0,21.0,0003.4,0042.81,0028.92,0027.56
2023-05-22 20:27:00,,0829.9,5.01,0.00,29.5,24.9,00.0,37.7,30.9,21.1,0003.4,0042.90,0029.01,0027.66
2023-05-22 20:28:00,,0829.8,5.01,0.00,29.4,25.2,00.0,37.7,30.8,21.1,0003.5,0042.42,0029.12,0027.76
2023-05-22 20:29:00,,0829.8,4.99,0.00,29.4,25.5,00.0,37.7,30.7,21.2,0003.5,0042.55,0029.26,0027.88
2023-05-22 20:30:00,,0829.8,5.00,0.00,29.3,26.0,00.0,37.7,30.8,22.1,0003.6,0042.62,0029.37,0027.94
2023-05-22 20:31:00,,0829.9,5.00,0.00,29.3,26.3,00.0,37.7,30.8,22.5,0003.6,0042.95,0029.48,0028.03
2023-05-22 20:32:00,,0829.9,4.99,0.00,29.3,26.7,00.0,37.7,30.9,22.7,0003.6,0042.13,0029.52,0028.11
2023-05-22 20:33:00,,0829.9,5.01,0.00,29.3,27.0,00.0,37.7,30.9,21.7,0003.6,0042.19,0029.59,0028.19
2023-05-22 20:34:00,,0829.9,5.01,0.00,29.3,27.2,00.0,37.7,31.0,21.4,0003.6,0042.40,0029.66,0028.25
2023-05-22 20:35:00,,0829.8,4.99,0.00,29.3,27.4,00.0,37.7,31.0,20.7,0003.5,0041.83,0029.63,0028.24
2023-05-22 20:36:00,,0829.8,4.99,0.00,29.4,27.6,00.0,37.7,31.1,21.0,0003.4,0041.42,0029.64,0028.25
2023-05-22 20:37:00,,0829.8,5.02,0.00,29.4,27.8,00.0,37.7,31.1,20.9,0003.4,0041.62,0029.68,0028.26
2023-05-22 20:38:00,,0829.8,5.01,0.00,29.4,27.9,00.0,37.7,31.1,20.6,0003.3,0042.33,0029.68,0028.25
2023-05-22 20:39:00,,0829.8,4.99,0.00,29.4,28.0,00.0,37.7,31.2,20.6,0003.3,0042.26,0029.67,0028.25
2023-05-22 20:40:00,,0829.8,4.99,0.00,29.5,28.1,00.0,37.7,31.2,20.6,0003.4,0042.23,0029.70,0028.30
2023-05-22 20:41:00,,0829.8,5.01,0.00,29.5,28.2,00.0,37.8,31.3,21.0,0003.3,0042.17,0029.73,0028.35
2023-05-22 20:42:00,,0829.8,5.00,0.00,29.5,28.3,00.0,37.8,31.3,20.9,0003.3,0042.28,0029.83,0028.42
2023-05-22 20:43:00,,0829.8,5.00,0.00,29.6,28.4,00.0,37.8,31.3,21.0,0003.3,0041.86,0029.92,0028.52
2023-05-22 20:44:00,,0829.8,5.01,0.00,29.6,28.4,00.0,37.8,31.4,22.0,0003.3,0042.36,0029.94,0028.59
2023-05-22 20:45:00,,0829.8,4.98,0.00,29.6,27.7,00.0,37.8,31.3,21.9,0003.4,0041.99,0030.03,0028.67
2023-05-22 20:46:00,,0829.7,5.01,0.00,29.6,26.2,00.0,37.7,31.1,21.2,0003.5,0042.42,0030.21,0028.77
2023-05-22 20:47:00,,0829.7,5.01,0.00,29.5,26.0,00.0,37.7,31.0,20.5,0003.5,0042.80,0030.42,0028.95
2023-05-22 20:48:00,,0829.7,5.00,0.00,29.5,26.2,00.0,37.7,30.9,20.4,0003.6,0042.67,0030.63,0029.19
2023-05-22 20:49:00,,0829.7,5.00,0.00,29.4,26.5,00.0,37.7,30.9,20.5,0003.6,0042.12,0030.85,0029.46
2023-05-22 20:50:00,,0829.7,5.00,0.00,29.4,26.8,00.0,37.7,31.0,20.3,0003.6,0043.22,0031.11,0029.71
2023-05-22 20:51:00,,0829.8,5.00,0.00,29.4,27.0,00.0,37.7,31.1,20.5,0003.6,0044.60,0031.37,0029.94
2023-05-22 20:52:00,,0829.7,5.00,0.00,29.4,27.3,00.0,37.7,31.1,20.5,0003.6,0045.56,0031.69,0030.19
2023-05-22 20:53:00,,0829.7,4.99,0.00,29.4,27.5,00.0,37.7,31.1,20.5,0003.7,0046.28,0031.98,0030.48
2023-05-22 20:54:00,,0829.7,4.99,0.00,29.5,27.7,00.0,37.8,31.2,21.7,0003.6,0047.06,0032.33,0030.76
2023-05-22 20:55:00,,0829.7,5.01,0.00,29.5,27.9,00.0,37.8,31.2,22.1,0003.6,0046.60,0032.61,0031.03
2023-05-22 20:56:00,,0829.7,5.01,0.00,29.5,28.0,00.0,37.8,31.2,21.2,0003.6,0047.31,0032.88,0031.32
2023-05-22 20:57:00,,0829.7,5.00,0.00,29.5,28.1,00.0,37.8,31.3,20.0,0003.6,0048.01,0033.15,0031.65
2023-05-22 20:58:00,,0829.7,4.99,0.00,29.6,28.2,00.0,37.8,31.3,19.7,0003.6,0048.16,0033.27,0031.80
2023-05-22 20:59:00,,0829.7,5.00,0.00,29.6,28.3,00.0,37.8,31.4,19.8,0003.6,0049.23,0033.47,0031.92
